Location: Endfield
(51.6667°N, 0.0667°W)
Time: 21:04:47
(UTC+00:00)

Cosmos 1634 Rocket - Pass Details

Date: 19 May 2024
Orbit: 959 x 992 km, 82.9° (Epoch: 14 June)

Event Time Altitude Azimuth Distance (km) Brightness Sun altitude
Rises 20:37:20 0° 351° (N) 3,713 8.0 -6.2°
Reaches altitude 10° 20:39:57 10° 356° (N) 2,757 7.2 -6.4°
Maximum altitude 20:46:08 54° 74° (ENE) 1,181 4.3 -7.1°
Drops below altitude 10° 20:52:14 10° 151° (SSE) 2,717 5.7 -7.8°
Enters shadow 20:52:39 - 152° (SSE) 2,871 5.8 -7.8°
